Location: Unspecified
(0.0000°N, 0.0000°E)
Time: 19:57:19
(UTC+00:00)

deb OV3-4 - Pass Details

Date: 12 April 2026
Orbit: 581 x 4210 km, 40.6° (Epoch: 13 May)

Event Time Altitude Azimuth Distance (km) Brightness Sun altitude
Rises 21:21:40 0° 297° (WNW) 5,062 ? -49.4°
Reaches altitude 10° 21:26:13 10° 287° (WNW) 3,462 ? -50.5°
Enters shadow 21:28:54 18° 274° (W) 2,564 ? -51.2°
